Tracking 29528 objects as of 15-Sep-2024
HD Live streaming from Space Station
objects crossing your sky now

STARLINK-1244

Track STARLINK-1244 now!
10-day predictions
STARLINK-1244 is classified as:


NORAD ID: 45196
Int'l Code: 2020-012U
Perigee: 553.4 km
Apogee: 555.4 km
Inclination: 53.1 °
Period: 95.6 minutes
Semi major axis: 6925 km
RCS: Unknown
Launch date: February 17, 2020
Source: United States (US)
Launch site: AIR FORCE EASTERN TEST RANGE (AFETR)
Your satellite tracking list
Your tracking list is empty




NASA's NSSDC Master Catalog

Two Line Element Set (TLE):
1 45196U 20012U   24258.48559529 -.00000135  00000-0  98552-5 0  9992
2 45196  53.0543 316.1846 0001399 101.1860 258.9286 15.06386574253314
Source of the keplerian elements: AFSPC